カタログに戻る

STARLINK-35666

運用中通信VLEO
NORAD 66222·PAYLOAD·🇺🇸 United States

打ち上げ Oct 28, 2025 から Vandenberg Space Force Base

Loading…

次のパス (今後24時間)

TLE

最新Source: CelesTrak SupGP

元期: Sep 14, 2026, 20:50 UTC

1 66222C 25244S   26257.86854167  .00001940  00000+0  57338-4 0  2572
2 66222  53.1594  69.7372 0001283  85.3769 295.3355 15.34374847    12

AllMySatでSTARLINK-35666をリアルタイム追跡

Download on the App Store